Index of /20260430/WXO-DD/model_rdps/10km/06/008
Name Last modified Size Description
Parent Directory -
20260430T06Z_MSC_RDPS_AbsoluteVorticity_IsbL-0250_RLatLon0.09_PT008H.grib2 2026-04-30 08:42 621K
20260430T06Z_MSC_RDPS_AbsoluteVorticity_IsbL-0500_RLatLon0.09_PT008H.grib2 2026-04-30 08:42 567K
20260430T06Z_MSC_RDPS_AbsoluteVorticity_IsbL-0700_RLatLon0.09_PT008H.grib2 2026-04-30 08:42 622K
20260430T06Z_MSC_RDPS_AbsoluteVorticity_IsbL-0850_RLatLon0.09_PT008H.grib2 2026-04-30 08:42 778K
20260430T06Z_MSC_RDPS_AirTemp_AGL-120m_RLatLon0.09_PT008H.grib2 2026-04-30 08:42 398K
20260430T06Z_MSC_RDPS_AirTemp_AGL-2m_RLatLon0.09_PT008H.grib2 2026-04-30 08:42 638K
20260430T06Z_MSC_RDPS_AirTemp_AGL-40m_RLatLon0.09_PT008H.grib2 2026-04-30 08:42 413K
20260430T06Z_MSC_RDPS_AirTemp_AGL-80m_RLatLon0.09_PT008H.grib2 2026-04-30 08:42 406K
20260430T06Z_MSC_RDPS_AirTemp_IsbL-0001_RLatLon0.09_PT008H.grib2 2026-04-30 08:42 313K
20260430T06Z_MSC_RDPS_AirTemp_IsbL-0005_RLatLon0.09_PT008H.grib2 2026-04-30 08:42 281K
20260430T06Z_MSC_RDPS_AirTemp_IsbL-0010_RLatLon0.09_PT008H.grib2 2026-04-30 08:42 292K
20260430T06Z_MSC_RDPS_AirTemp_IsbL-0020_RLatLon0.09_PT008H.grib2 2026-04-30 08:42 304K
20260430T06Z_MSC_RDPS_AirTemp_IsbL-0030_RLatLon0.09_PT008H.grib2 2026-04-30 08:42 327K
20260430T06Z_MSC_RDPS_AirTemp_IsbL-0050_RLatLon0.09_PT008H.grib2 2026-04-30 08:42 305K
20260430T06Z_MSC_RDPS_AirTemp_IsbL-0100_RLatLon0.09_PT008H.grib2 2026-04-30 08:42 419K
20260430T06Z_MSC_RDPS_AirTemp_IsbL-0150_RLatLon0.09_PT008H.grib2 2026-04-30 08:42 423K
20260430T06Z_MSC_RDPS_AirTemp_IsbL-0175_RLatLon0.09_PT008H.grib2 2026-04-30 08:42 411K
20260430T06Z_MSC_RDPS_AirTemp_IsbL-0200_RLatLon0.09_PT008H.grib2 2026-04-30 08:42 416K
20260430T06Z_MSC_RDPS_AirTemp_IsbL-0225_RLatLon0.09_PT008H.grib2 2026-04-30 08:42 418K
20260430T06Z_MSC_RDPS_AirTemp_IsbL-0250_RLatLon0.09_PT008H.grib2 2026-04-30 08:42 429K
20260430T06Z_MSC_RDPS_AirTemp_IsbL-0275_RLatLon0.09_PT008H.grib2 2026-04-30 08:42 408K
20260430T06Z_MSC_RDPS_AirTemp_IsbL-0300_RLatLon0.09_PT008H.grib2 2026-04-30 08:42 413K
20260430T06Z_MSC_RDPS_AirTemp_IsbL-0350_RLatLon0.09_PT008H.grib2 2026-04-30 08:42 426K
20260430T06Z_MSC_RDPS_AirTemp_IsbL-0400_RLatLon0.09_PT008H.grib2 2026-04-30 08:42 427K
20260430T06Z_MSC_RDPS_AirTemp_IsbL-0450_RLatLon0.09_PT008H.grib2 2026-04-30 08:42 434K
20260430T06Z_MSC_RDPS_AirTemp_IsbL-0500_RLatLon0.09_PT008H.grib2 2026-04-30 08:42 409K
20260430T06Z_MSC_RDPS_AirTemp_IsbL-0550_RLatLon0.09_PT008H.grib2 2026-04-30 08:42 427K
20260430T06Z_MSC_RDPS_AirTemp_IsbL-0600_RLatLon0.09_PT008H.grib2 2026-04-30 08:42 447K
20260430T06Z_MSC_RDPS_AirTemp_IsbL-0650_RLatLon0.09_PT008H.grib2 2026-04-30 08:42 463K
20260430T06Z_MSC_RDPS_AirTemp_IsbL-0700_RLatLon0.09_PT008H.grib2 2026-04-30 08:42 484K
20260430T06Z_MSC_RDPS_AirTemp_IsbL-0750_RLatLon0.09_PT008H.grib2 2026-04-30 08:42 405K
20260430T06Z_MSC_RDPS_AirTemp_IsbL-0800_RLatLon0.09_PT008H.grib2 2026-04-30 08:42 447K
20260430T06Z_MSC_RDPS_AirTemp_IsbL-0850_RLatLon0.09_PT008H.grib2 2026-04-30 08:42 499K
20260430T06Z_MSC_RDPS_AirTemp_IsbL-0875_RLatLon0.09_PT008H.grib2 2026-04-30 08:42 519K
20260430T06Z_MSC_RDPS_AirTemp_IsbL-0900_RLatLon0.09_PT008H.grib2 2026-04-30 08:42 530K
20260430T06Z_MSC_RDPS_AirTemp_IsbL-0925_RLatLon0.09_PT008H.grib2 2026-04-30 08:42 529K
20260430T06Z_MSC_RDPS_AirTemp_IsbL-0950_RLatLon0.09_PT008H.grib2 2026-04-30 08:42 533K
20260430T06Z_MSC_RDPS_AirTemp_IsbL-0970_RLatLon0.09_PT008H.grib2 2026-04-30 08:42 528K
20260430T06Z_MSC_RDPS_AirTemp_IsbL-0985_RLatLon0.09_PT008H.grib2 2026-04-30 08:42 514K
20260430T06Z_MSC_RDPS_AirTemp_IsbL-1000_RLatLon0.09_PT008H.grib2 2026-04-30 08:42 495K
20260430T06Z_MSC_RDPS_AirTemp_IsbL-1015_RLatLon0.09_PT008H.grib2 2026-04-30 08:42 494K
20260430T06Z_MSC_RDPS_Albedo_Sfc_RLatLon0.09_PT008H.grib2 2026-04-30 08:42 160K
20260430T06Z_MSC_RDPS_CAPE_Sfc_RLatLon0.09_PT008H.grib2 2026-04-30 08:42 1.6M
20260430T06Z_MSC_RDPS_CIN_Sfc_RLatLon0.09_PT008H.grib2 2026-04-30 08:42 1.0M
20260430T06Z_MSC_RDPS_CloudWater_EAtm_RLatLon0.09_PT008H.grib2 2026-04-30 08:42 218K
20260430T06Z_MSC_RDPS_ConvectivePrecip-Accum_Sfc_RLatLon0.09_PT008H.grib2 2026-04-30 08:42 484K
20260430T06Z_MSC_RDPS_DewPointDepression_AGL-2m_RLatLon0.09_PT008H.grib2 2026-04-30 08:42 409K
20260430T06Z_MSC_RDPS_DewPointDepression_IsbL-0001_RLatLon0.09_PT008H.grib2 2026-04-30 08:42 193
20260430T06Z_MSC_RDPS_DewPointDepression_IsbL-0005_RLatLon0.09_PT008H.grib2 2026-04-30 08:42 193
20260430T06Z_MSC_RDPS_DewPointDepression_IsbL-0010_RLatLon0.09_PT008H.grib2 2026-04-30 08:42 193
20260430T06Z_MSC_RDPS_DewPointDepression_IsbL-0020_RLatLon0.09_PT008H.grib2 2026-04-30 08:42 193
20260430T06Z_MSC_RDPS_DewPointDepression_IsbL-0030_RLatLon0.09_PT008H.grib2 2026-04-30 08:42 193
20260430T06Z_MSC_RDPS_DewPointDepression_IsbL-0050_RLatLon0.09_PT008H.grib2 2026-04-30 08:42 84K
20260430T06Z_MSC_RDPS_DewPointDepression_IsbL-0100_RLatLon0.09_PT008H.grib2 2026-04-30 08:42 129K
20260430T06Z_MSC_RDPS_DewPointDepression_IsbL-0150_RLatLon0.09_PT008H.grib2 2026-04-30 08:42 149K
20260430T06Z_MSC_RDPS_DewPointDepression_IsbL-0175_RLatLon0.09_PT008H.grib2 2026-04-30 08:42 182K
20260430T06Z_MSC_RDPS_DewPointDepression_IsbL-0200_RLatLon0.09_PT008H.grib2 2026-04-30 08:42 221K
20260430T06Z_MSC_RDPS_DewPointDepression_IsbL-0225_RLatLon0.09_PT008H.grib2 2026-04-30 08:42 267K
20260430T06Z_MSC_RDPS_DewPointDepression_IsbL-0250_RLatLon0.09_PT008H.grib2 2026-04-30 08:42 305K
20260430T06Z_MSC_RDPS_DewPointDepression_IsbL-0275_RLatLon0.09_PT008H.grib2 2026-04-30 08:42 310K
20260430T06Z_MSC_RDPS_DewPointDepression_IsbL-0300_RLatLon0.09_PT008H.grib2 2026-04-30 08:42 330K
20260430T06Z_MSC_RDPS_DewPointDepression_IsbL-0350_RLatLon0.09_PT008H.grib2 2026-04-30 08:42 334K
20260430T06Z_MSC_RDPS_DewPointDepression_IsbL-0400_RLatLon0.09_PT008H.grib2 2026-04-30 08:42 341K
20260430T06Z_MSC_RDPS_DewPointDepression_IsbL-0450_RLatLon0.09_PT008H.grib2 2026-04-30 08:42 347K
20260430T06Z_MSC_RDPS_DewPointDepression_IsbL-0500_RLatLon0.09_PT008H.grib2 2026-04-30 08:42 348K
20260430T06Z_MSC_RDPS_DewPointDepression_IsbL-0550_RLatLon0.09_PT008H.grib2 2026-04-30 08:42 357K
20260430T06Z_MSC_RDPS_DewPointDepression_IsbL-0600_RLatLon0.09_PT008H.grib2 2026-04-30 08:42 372K
20260430T06Z_MSC_RDPS_DewPointDepression_IsbL-0650_RLatLon0.09_PT008H.grib2 2026-04-30 08:42 379K
20260430T06Z_MSC_RDPS_DewPointDepression_IsbL-0700_RLatLon0.09_PT008H.grib2 2026-04-30 08:42 385K
20260430T06Z_MSC_RDPS_DewPointDepression_IsbL-0750_RLatLon0.09_PT008H.grib2 2026-04-30 08:42 403K
20260430T06Z_MSC_RDPS_DewPointDepression_IsbL-0800_RLatLon0.09_PT008H.grib2 2026-04-30 08:42 434K
20260430T06Z_MSC_RDPS_DewPointDepression_IsbL-0850_RLatLon0.09_PT008H.grib2 2026-04-30 08:42 464K
20260430T06Z_MSC_RDPS_DewPointDepression_IsbL-0875_RLatLon0.09_PT008H.grib2 2026-04-30 08:42 466K
20260430T06Z_MSC_RDPS_DewPointDepression_IsbL-0900_RLatLon0.09_PT008H.grib2 2026-04-30 08:42 459K
20260430T06Z_MSC_RDPS_DewPointDepression_IsbL-0925_RLatLon0.09_PT008H.grib2 2026-04-30 08:42 449K
20260430T06Z_MSC_RDPS_DewPointDepression_IsbL-0950_RLatLon0.09_PT008H.grib2 2026-04-30 08:42 446K
20260430T06Z_MSC_RDPS_DewPointDepression_IsbL-0970_RLatLon0.09_PT008H.grib2 2026-04-30 08:42 441K
20260430T06Z_MSC_RDPS_DewPointDepression_IsbL-0985_RLatLon0.09_PT008H.grib2 2026-04-30 08:42 435K
20260430T06Z_MSC_RDPS_DewPointDepression_IsbL-1000_RLatLon0.09_PT008H.grib2 2026-04-30 08:42 428K
20260430T06Z_MSC_RDPS_DewPointDepression_IsbL-1015_RLatLon0.09_PT008H.grib2 2026-04-30 08:42 421K
20260430T06Z_MSC_RDPS_DewPoint_AGL-2m_RLatLon0.09_PT008H.grib2 2026-04-30 08:42 398K
20260430T06Z_MSC_RDPS_DownwardLongwaveRadiationFlux-Accum_Sfc_RLatLon0.09_PT008H.grib2 2026-04-30 08:42 543K
20260430T06Z_MSC_RDPS_DownwardShortwaveRadiationFlux-Accum_NTAtm_RLatLon0.09_PT008H.grib2 2026-04-30 08:42 86K
20260430T06Z_MSC_RDPS_DownwardShortwaveRadiationFlux-Accum_Sfc_RLatLon0.09_PT008H.grib2 2026-04-30 08:42 306K
20260430T06Z_MSC_RDPS_FreezingRain-Accum1h_Sfc_RLatLon0.09_PT008H.grib2 2026-04-30 08:42 32K
20260430T06Z_MSC_RDPS_FreezingRain-Accum_Sfc_RLatLon0.09_PT008H.grib2 2026-04-30 08:42 70K
20260430T06Z_MSC_RDPS_GeopotentialHeight_IsbL-0001_RLatLon0.09_PT008H.grib2 2026-04-30 08:42 316K
20260430T06Z_MSC_RDPS_GeopotentialHeight_IsbL-0005_RLatLon0.09_PT008H.grib2 2026-04-30 08:42 302K
20260430T06Z_MSC_RDPS_GeopotentialHeight_IsbL-0010_RLatLon0.09_PT008H.grib2 2026-04-30 08:42 304K
20260430T06Z_MSC_RDPS_GeopotentialHeight_IsbL-0020_RLatLon0.09_PT008H.grib2 2026-04-30 08:42 302K
20260430T06Z_MSC_RDPS_GeopotentialHeight_IsbL-0030_RLatLon0.09_PT008H.grib2 2026-04-30 08:42 303K
20260430T06Z_MSC_RDPS_GeopotentialHeight_IsbL-0050_RLatLon0.09_PT008H.grib2 2026-04-30 08:42 305K
20260430T06Z_MSC_RDPS_GeopotentialHeight_IsbL-0100_RLatLon0.09_PT008H.grib2 2026-04-30 08:42 283K
20260430T06Z_MSC_RDPS_GeopotentialHeight_IsbL-0150_RLatLon0.09_PT008H.grib2 2026-04-30 08:42 228K
20260430T06Z_MSC_RDPS_GeopotentialHeight_IsbL-0175_RLatLon0.09_PT008H.grib2 2026-04-30 08:42 231K
20260430T06Z_MSC_RDPS_GeopotentialHeight_IsbL-0200_RLatLon0.09_PT008H.grib2 2026-04-30 08:42 263K
20260430T06Z_MSC_RDPS_GeopotentialHeight_IsbL-0225_RLatLon0.09_PT008H.grib2 2026-04-30 08:42 266K
20260430T06Z_MSC_RDPS_GeopotentialHeight_IsbL-0250_RLatLon0.09_PT008H.grib2 2026-04-30 08:42 267K
20260430T06Z_MSC_RDPS_GeopotentialHeight_IsbL-0275_RLatLon0.09_PT008H.grib2 2026-04-30 08:42 266K
20260430T06Z_MSC_RDPS_GeopotentialHeight_IsbL-0300_RLatLon0.09_PT008H.grib2 2026-04-30 08:42 267K
20260430T06Z_MSC_RDPS_GeopotentialHeight_IsbL-0350_RLatLon0.09_PT008H.grib2 2026-04-30 08:42 232K
20260430T06Z_MSC_RDPS_GeopotentialHeight_IsbL-0400_RLatLon0.09_PT008H.grib2 2026-04-30 08:42 229K
20260430T06Z_MSC_RDPS_GeopotentialHeight_IsbL-0450_RLatLon0.09_PT008H.grib2 2026-04-30 08:42 297K
20260430T06Z_MSC_RDPS_GeopotentialHeight_IsbL-0500_RLatLon0.09_PT008H.grib2 2026-04-30 08:42 292K
20260430T06Z_MSC_RDPS_GeopotentialHeight_IsbL-0550_RLatLon0.09_PT008H.grib2 2026-04-30 08:42 287K
20260430T06Z_MSC_RDPS_GeopotentialHeight_IsbL-0600_RLatLon0.09_PT008H.grib2 2026-04-30 08:42 284K
20260430T06Z_MSC_RDPS_GeopotentialHeight_IsbL-0650_RLatLon0.09_PT008H.grib2 2026-04-30 08:42 252K
20260430T06Z_MSC_RDPS_GeopotentialHeight_IsbL-0700_RLatLon0.09_PT008H.grib2 2026-04-30 08:42 332K
20260430T06Z_MSC_RDPS_GeopotentialHeight_IsbL-0750_RLatLon0.09_PT008H.grib2 2026-04-30 08:42 334K
20260430T06Z_MSC_RDPS_GeopotentialHeight_IsbL-0800_RLatLon0.09_PT008H.grib2 2026-04-30 08:42 342K
20260430T06Z_MSC_RDPS_GeopotentialHeight_IsbL-0850_RLatLon0.09_PT008H.grib2 2026-04-30 08:42 351K
20260430T06Z_MSC_RDPS_GeopotentialHeight_IsbL-0875_RLatLon0.09_PT008H.grib2 2026-04-30 08:42 388K
20260430T06Z_MSC_RDPS_GeopotentialHeight_IsbL-0900_RLatLon0.09_PT008H.grib2 2026-04-30 08:42 392K
20260430T06Z_MSC_RDPS_GeopotentialHeight_IsbL-0925_RLatLon0.09_PT008H.grib2 2026-04-30 08:42 395K
20260430T06Z_MSC_RDPS_GeopotentialHeight_IsbL-0950_RLatLon0.09_PT008H.grib2 2026-04-30 08:42 400K
20260430T06Z_MSC_RDPS_GeopotentialHeight_IsbL-0970_RLatLon0.09_PT008H.grib2 2026-04-30 08:42 407K
20260430T06Z_MSC_RDPS_GeopotentialHeight_IsbL-0985_RLatLon0.09_PT008H.grib2 2026-04-30 08:42 417K
20260430T06Z_MSC_RDPS_GeopotentialHeight_IsbL-1000_RLatLon0.09_PT008H.grib2 2026-04-30 08:42 430K
20260430T06Z_MSC_RDPS_GeopotentialHeight_IsbL-1015_RLatLon0.09_PT008H.grib2 2026-04-30 08:42 446K
20260430T06Z_MSC_RDPS_Humidex_Sfc_RLatLon0.09_PT008H.grib2 2026-04-30 08:42 2.4M
20260430T06Z_MSC_RDPS_IcePellets-Accum1h_Sfc_RLatLon0.09_PT008H.grib2 2026-04-30 08:42 2.7K
20260430T06Z_MSC_RDPS_IcePellets-Accum_Sfc_RLatLon0.09_PT008H.grib2 2026-04-30 08:42 3.0K
20260430T06Z_MSC_RDPS_KIndex_Sfc_RLatLon0.09_PT008H.grib2 2026-04-30 08:42 2.5M
20260430T06Z_MSC_RDPS_LatentHeatNetFlux_Sfc_RLatLon0.09_PT008H.grib2 2026-04-30 08:42 446K
20260430T06Z_MSC_RDPS_LiftedIndex-MU-VT_IsbL-0500_RLatLon0.09_PT008H.grib2 2026-04-30 08:42 2.4M
20260430T06Z_MSC_RDPS_NetLongwaveRadiationFlux-Accum_Sfc_RLatLon0.09_PT008H.grib2 2026-04-30 08:42 544K
20260430T06Z_MSC_RDPS_NetShortwaveRadiationFlux-Accum_Sfc_RLatLon0.09_PT008H.grib2 2026-04-30 08:42 391K
20260430T06Z_MSC_RDPS_PlanetaryBoundaryLayerHeight_Sfc_RLatLon0.09_PT008H.grib2 2026-04-30 08:42 1.1M
20260430T06Z_MSC_RDPS_Precip-Accum1h_Sfc_RLatLon0.09_PT008H.grib2 2026-04-30 08:42 1.2M
20260430T06Z_MSC_RDPS_Precip-Accum_Sfc_RLatLon0.09_PT008H.grib2 2026-04-30 08:42 1.4M
20260430T06Z_MSC_RDPS_PrecipRate_Sfc_RLatLon0.09_PT008H.grib2 2026-04-30 08:42 178K
20260430T06Z_MSC_RDPS_PrecipType-Instant_Sfc_RLatLon0.09_PT008H.grib2 2026-04-30 08:42 569K
20260430T06Z_MSC_RDPS_Pressure-Trend3h_Sfc_RLatLon0.09_PT008H.grib2 2026-04-30 08:42 1.2M
20260430T06Z_MSC_RDPS_Pressure_MSL_RLatLon0.09_PT008H.grib2 2026-04-30 08:42 293K
20260430T06Z_MSC_RDPS_Pressure_PVU-1.5_RLatLon0.09_PT008H.grib2 2026-04-30 08:42 2.3M
20260430T06Z_MSC_RDPS_Pressure_PVU-1_RLatLon0.09_PT008H.grib2 2026-04-30 08:42 2.4M
20260430T06Z_MSC_RDPS_Pressure_PVU-2_RLatLon0.09_PT008H.grib2 2026-04-30 08:42 2.4M
20260430T06Z_MSC_RDPS_Pressure_Sfc_RLatLon0.09_PT008H.grib2 2026-04-30 08:42 501K
20260430T06Z_MSC_RDPS_RadiativeTemp_Sfc_RLatLon0.09_PT008H.grib2 2026-04-30 08:42 311K
20260430T06Z_MSC_RDPS_Rain-Accum1h_Sfc_RLatLon0.09_PT008H.grib2 2026-04-30 08:42 587K
20260430T06Z_MSC_RDPS_Rain-Accum_Sfc_RLatLon0.09_PT008H.grib2 2026-04-30 08:42 1.0M
20260430T06Z_MSC_RDPS_RelativeHumidity_AGL-2m_RLatLon0.09_PT008H.grib2 2026-04-30 08:42 1.0M
20260430T06Z_MSC_RDPS_RelativeHumidity_IsbL-0010_RLatLon0.09_PT008H.grib2 2026-04-30 08:42 640K
20260430T06Z_MSC_RDPS_RelativeHumidity_IsbL-0020_RLatLon0.09_PT008H.grib2 2026-04-30 08:42 686K
20260430T06Z_MSC_RDPS_RelativeHumidity_IsbL-0030_RLatLon0.09_PT008H.grib2 2026-04-30 08:42 599K
20260430T06Z_MSC_RDPS_RelativeHumidity_IsbL-0050_RLatLon0.09_PT008H.grib2 2026-04-30 08:42 367K
20260430T06Z_MSC_RDPS_RelativeHumidity_IsbL-0100_RLatLon0.09_PT008H.grib2 2026-04-30 08:42 284K
20260430T06Z_MSC_RDPS_RelativeHumidity_IsbL-0150_RLatLon0.09_PT008H.grib2 2026-04-30 08:42 409K
20260430T06Z_MSC_RDPS_RelativeHumidity_IsbL-0175_RLatLon0.09_PT008H.grib2 2026-04-30 08:42 478K
20260430T06Z_MSC_RDPS_RelativeHumidity_IsbL-0200_RLatLon0.09_PT008H.grib2 2026-04-30 08:42 557K
20260430T06Z_MSC_RDPS_RelativeHumidity_IsbL-0225_RLatLon0.09_PT008H.grib2 2026-04-30 08:42 630K
20260430T06Z_MSC_RDPS_RelativeHumidity_IsbL-0250_RLatLon0.09_PT008H.grib2 2026-04-30 08:42 703K
20260430T06Z_MSC_RDPS_RelativeHumidity_IsbL-0275_RLatLon0.09_PT008H.grib2 2026-04-30 08:42 730K
20260430T06Z_MSC_RDPS_RelativeHumidity_IsbL-0300_RLatLon0.09_PT008H.grib2 2026-04-30 08:42 774K
20260430T06Z_MSC_RDPS_RelativeHumidity_IsbL-0350_RLatLon0.09_PT008H.grib2 2026-04-30 08:42 790K
20260430T06Z_MSC_RDPS_RelativeHumidity_IsbL-0400_RLatLon0.09_PT008H.grib2 2026-04-30 08:42 801K
20260430T06Z_MSC_RDPS_RelativeHumidity_IsbL-0450_RLatLon0.09_PT008H.grib2 2026-04-30 08:42 803K
20260430T06Z_MSC_RDPS_RelativeHumidity_IsbL-0500_RLatLon0.09_PT008H.grib2 2026-04-30 08:42 814K
20260430T06Z_MSC_RDPS_RelativeHumidity_IsbL-0550_RLatLon0.09_PT008H.grib2 2026-04-30 08:42 827K
20260430T06Z_MSC_RDPS_RelativeHumidity_IsbL-0600_RLatLon0.09_PT008H.grib2 2026-04-30 08:42 853K
20260430T06Z_MSC_RDPS_RelativeHumidity_IsbL-0650_RLatLon0.09_PT008H.grib2 2026-04-30 08:42 858K
20260430T06Z_MSC_RDPS_RelativeHumidity_IsbL-0700_RLatLon0.09_PT008H.grib2 2026-04-30 08:42 887K
20260430T06Z_MSC_RDPS_RelativeHumidity_IsbL-0750_RLatLon0.09_PT008H.grib2 2026-04-30 08:42 926K
20260430T06Z_MSC_RDPS_RelativeHumidity_IsbL-0800_RLatLon0.09_PT008H.grib2 2026-04-30 08:42 1.0M
20260430T06Z_MSC_RDPS_RelativeHumidity_IsbL-0850_RLatLon0.09_PT008H.grib2 2026-04-30 08:42 1.0M
20260430T06Z_MSC_RDPS_RelativeHumidity_IsbL-0875_RLatLon0.09_PT008H.grib2 2026-04-30 08:42 1.0M
20260430T06Z_MSC_RDPS_RelativeHumidity_IsbL-0900_RLatLon0.09_PT008H.grib2 2026-04-30 08:42 1.1M
20260430T06Z_MSC_RDPS_RelativeHumidity_IsbL-0925_RLatLon0.09_PT008H.grib2 2026-04-30 08:42 1.1M
20260430T06Z_MSC_RDPS_RelativeHumidity_IsbL-0950_RLatLon0.09_PT008H.grib2 2026-04-30 08:42 1.1M
20260430T06Z_MSC_RDPS_RelativeHumidity_IsbL-0970_RLatLon0.09_PT008H.grib2 2026-04-30 08:42 1.1M
20260430T06Z_MSC_RDPS_RelativeHumidity_IsbL-0985_RLatLon0.09_PT008H.grib2 2026-04-30 08:42 1.0M
20260430T06Z_MSC_RDPS_RelativeHumidity_IsbL-1000_RLatLon0.09_PT008H.grib2 2026-04-30 08:42 1.0M
20260430T06Z_MSC_RDPS_RelativeHumidity_IsbL-1015_RLatLon0.09_PT008H.grib2 2026-04-30 08:42 1.0M
20260430T06Z_MSC_RDPS_Runoff-Accum_Sfc_RLatLon0.09_PT008H.grib2 2026-04-30 08:42 21K
20260430T06Z_MSC_RDPS_SWEATIndex_Sfc_RLatLon0.09_PT008H.grib2 2026-04-30 08:42 2.4M
20260430T06Z_MSC_RDPS_SeeingIndex_EAtm_RLatLon0.09_PT008H.grib2 2026-04-30 08:42 1.0M
20260430T06Z_MSC_RDPS_SensibleHeatNetFlux_Sfc_RLatLon0.09_PT008H.grib2 2026-04-30 08:42 331K
20260430T06Z_MSC_RDPS_ShowalterIndex_IsbL-0500_RLatLon0.09_PT008H.grib2 2026-04-30 08:42 2.6M
20260430T06Z_MSC_RDPS_SkyTransparencyIndex_EAtm_RLatLon0.09_PT008H.grib2 2026-04-30 08:42 679K
20260430T06Z_MSC_RDPS_Snow-Accum1h_Sfc_RLatLon0.09_PT008H.grib2 2026-04-30 08:42 413K
20260430T06Z_MSC_RDPS_Snow-Accum_Sfc_RLatLon0.09_PT008H.grib2 2026-04-30 08:42 589K
20260430T06Z_MSC_RDPS_SnowDensity_Sfc_RLatLon0.09_PT008H.grib2 2026-04-30 08:42 172K
20260430T06Z_MSC_RDPS_SnowDepth_Sfc_RLatLon0.09_PT008H.grib2 2026-04-30 08:42 678K
20260430T06Z_MSC_RDPS_SoilTemp_DBS-0to10cm_RLatLon0.09_PT008H.grib2 2026-04-30 08:42 204K
20260430T06Z_MSC_RDPS_SoilTemp_Sfc_RLatLon0.09_PT008H.grib2 2026-04-30 08:42 281K
20260430T06Z_MSC_RDPS_SoilVolumetricIceContent_Sfc_RLatLon0.09_PT008H.grib2 2026-04-30 08:42 165K
20260430T06Z_MSC_RDPS_SoilVolumetricWaterContent_DBS-0to10cm_RLatLon0.09_PT008H.grib2 2026-04-30 08:42 266K
20260430T06Z_MSC_RDPS_SoilVolumetricWaterContent_DBS-0to1cm_RLatLon0.09_PT008H.grib2 2026-04-30 08:42 332K
20260430T06Z_MSC_RDPS_SpecificHumidity_AGL-120m_RLatLon0.09_PT008H.grib2 2026-04-30 08:42 489K
20260430T06Z_MSC_RDPS_SpecificHumidity_AGL-2m_RLatLon0.09_PT008H.grib2 2026-04-30 08:42 655K
20260430T06Z_MSC_RDPS_SpecificHumidity_AGL-40m_RLatLon0.09_PT008H.grib2 2026-04-30 08:42 495K
20260430T06Z_MSC_RDPS_SpecificHumidity_AGL-80m_RLatLon0.09_PT008H.grib2 2026-04-30 08:42 492K
20260430T06Z_MSC_RDPS_SpecificHumidity_IsbL-0001_RLatLon0.09_PT008H.grib2 2026-04-30 08:42 389K
20260430T06Z_MSC_RDPS_SpecificHumidity_IsbL-0005_RLatLon0.09_PT008H.grib2 2026-04-30 08:42 357K
20260430T06Z_MSC_RDPS_SpecificHumidity_IsbL-0010_RLatLon0.09_PT008H.grib2 2026-04-30 08:42 393K
20260430T06Z_MSC_RDPS_SpecificHumidity_IsbL-0020_RLatLon0.09_PT008H.grib2 2026-04-30 08:42 384K
20260430T06Z_MSC_RDPS_SpecificHumidity_IsbL-0030_RLatLon0.09_PT008H.grib2 2026-04-30 08:42 369K
20260430T06Z_MSC_RDPS_SpecificHumidity_IsbL-0050_RLatLon0.09_PT008H.grib2 2026-04-30 08:42 460K
20260430T06Z_MSC_RDPS_SpecificHumidity_IsbL-0100_RLatLon0.09_PT008H.grib2 2026-04-30 08:42 351K
20260430T06Z_MSC_RDPS_SpecificHumidity_IsbL-0150_RLatLon0.09_PT008H.grib2 2026-04-30 08:42 453K
20260430T06Z_MSC_RDPS_SpecificHumidity_IsbL-0175_RLatLon0.09_PT008H.grib2 2026-04-30 08:42 536K
20260430T06Z_MSC_RDPS_SpecificHumidity_IsbL-0200_RLatLon0.09_PT008H.grib2 2026-04-30 08:42 453K
20260430T06Z_MSC_RDPS_SpecificHumidity_IsbL-0225_RLatLon0.09_PT008H.grib2 2026-04-30 08:42 460K
20260430T06Z_MSC_RDPS_SpecificHumidity_IsbL-0250_RLatLon0.09_PT008H.grib2 2026-04-30 08:42 565K
20260430T06Z_MSC_RDPS_SpecificHumidity_IsbL-0275_RLatLon0.09_PT008H.grib2 2026-04-30 08:42 479K
20260430T06Z_MSC_RDPS_SpecificHumidity_IsbL-0300_RLatLon0.09_PT008H.grib2 2026-04-30 08:42 454K
20260430T06Z_MSC_RDPS_SpecificHumidity_IsbL-0350_RLatLon0.09_PT008H.grib2 2026-04-30 08:42 445K
20260430T06Z_MSC_RDPS_SpecificHumidity_IsbL-0400_RLatLon0.09_PT008H.grib2 2026-04-30 08:42 524K
20260430T06Z_MSC_RDPS_SpecificHumidity_IsbL-0450_RLatLon0.09_PT008H.grib2 2026-04-30 08:42 574K
20260430T06Z_MSC_RDPS_SpecificHumidity_IsbL-0500_RLatLon0.09_PT008H.grib2 2026-04-30 08:42 505K
20260430T06Z_MSC_RDPS_SpecificHumidity_IsbL-0550_RLatLon0.09_PT008H.grib2 2026-04-30 08:42 576K
20260430T06Z_MSC_RDPS_SpecificHumidity_IsbL-0600_RLatLon0.09_PT008H.grib2 2026-04-30 08:42 631K
20260430T06Z_MSC_RDPS_SpecificHumidity_IsbL-0650_RLatLon0.09_PT008H.grib2 2026-04-30 08:42 551K
20260430T06Z_MSC_RDPS_SpecificHumidity_IsbL-0700_RLatLon0.09_PT008H.grib2 2026-04-30 08:42 590K
20260430T06Z_MSC_RDPS_SpecificHumidity_IsbL-0750_RLatLon0.09_PT008H.grib2 2026-04-30 08:42 642K
20260430T06Z_MSC_RDPS_SpecificHumidity_IsbL-0800_RLatLon0.09_PT008H.grib2 2026-04-30 08:42 719K
20260430T06Z_MSC_RDPS_SpecificHumidity_IsbL-0850_RLatLon0.09_PT008H.grib2 2026-04-30 08:42 792K
20260430T06Z_MSC_RDPS_SpecificHumidity_IsbL-0875_RLatLon0.09_PT008H.grib2 2026-04-30 08:42 817K
20260430T06Z_MSC_RDPS_SpecificHumidity_IsbL-0900_RLatLon0.09_PT008H.grib2 2026-04-30 08:42 832K
20260430T06Z_MSC_RDPS_SpecificHumidity_IsbL-0925_RLatLon0.09_PT008H.grib2 2026-04-30 08:42 836K
20260430T06Z_MSC_RDPS_SpecificHumidity_IsbL-0950_RLatLon0.09_PT008H.grib2 2026-04-30 08:42 699K
20260430T06Z_MSC_RDPS_SpecificHumidity_IsbL-0970_RLatLon0.09_PT008H.grib2 2026-04-30 08:42 693K
20260430T06Z_MSC_RDPS_SpecificHumidity_IsbL-0985_RLatLon0.09_PT008H.grib2 2026-04-30 08:42 683K
20260430T06Z_MSC_RDPS_SpecificHumidity_IsbL-1000_RLatLon0.09_PT008H.grib2 2026-04-30 08:42 674K
20260430T06Z_MSC_RDPS_SpecificHumidity_IsbL-1015_RLatLon0.09_PT008H.grib2 2026-04-30 08:42 663K
20260430T06Z_MSC_RDPS_SpecificHumidity_Sfc_RLatLon0.09_PT008H.grib2 2026-04-30 08:42 302K
20260430T06Z_MSC_RDPS_StormRelativeHelicity_EtaL-10000_RLatLon0.09_PT008H.grib2 2026-04-30 08:42 1.2M
20260430T06Z_MSC_RDPS_StormSeverityIndex_EtaL-10000_RLatLon0.09_PT008H.grib2 2026-04-30 08:42 1.1M
20260430T06Z_MSC_RDPS_Thickness_IsbL-0850to0700_RLatLon0.09_PT008H.grib2 2026-04-30 08:42 177K
20260430T06Z_MSC_RDPS_Thickness_IsbL-1000to0500_RLatLon0.09_PT008H.grib2 2026-04-30 08:42 199K
20260430T06Z_MSC_RDPS_Thickness_IsbL-1000to0850_RLatLon0.09_PT008H.grib2 2026-04-30 08:42 264K
20260430T06Z_MSC_RDPS_TotalCloudCover_Sfc_RLatLon0.09_PT008H.grib2 2026-04-30 08:42 656K
20260430T06Z_MSC_RDPS_TotalTotalsIndex_Sfc_RLatLon0.09_PT008H.grib2 2026-04-30 08:42 2.4M
20260430T06Z_MSC_RDPS_UVIndex-ClearSky_Sfc_RLatLon0.09_PT008H.grib2 2026-04-30 08:42 209K
20260430T06Z_MSC_RDPS_UVIndex_Sfc_RLatLon0.09_PT008H.grib2 2026-04-30 08:42 446K
20260430T06Z_MSC_RDPS_UpwardLongwaveRadiationFlux_NTAtm_RLatLon0.09_PT008H.grib2 2026-04-30 08:42 491K
20260430T06Z_MSC_RDPS_UpwardShortwaveRadiationFlux_NTAtm_RLatLon0.09_PT008H.grib2 2026-04-30 08:42 405K
20260430T06Z_MSC_RDPS_VerticalVelocity_IsbL-0250_RLatLon0.09_PT008H.grib2 2026-04-30 08:42 557K
20260430T06Z_MSC_RDPS_VerticalVelocity_IsbL-0500_RLatLon0.09_PT008H.grib2 2026-04-30 08:42 548K
20260430T06Z_MSC_RDPS_VerticalVelocity_IsbL-0700_RLatLon0.09_PT008H.grib2 2026-04-30 08:42 588K
20260430T06Z_MSC_RDPS_VerticalVelocity_IsbL-0850_RLatLon0.09_PT008H.grib2 2026-04-30 08:42 683K
20260430T06Z_MSC_RDPS_VerticalWindShear_EtaL-6500_RLatLon0.09_PT008H.grib2 2026-04-30 08:42 1.2M
20260430T06Z_MSC_RDPS_WindChill_Sfc_RLatLon0.09_PT008H.grib2 2026-04-30 08:42 1.1M
20260430T06Z_MSC_RDPS_WindDir_AGL-10m_RLatLon0.09_PT008H.grib2 2026-04-30 08:42 1.0M
20260430T06Z_MSC_RDPS_WindDir_AGL-120m_RLatLon0.09_PT008H.grib2 2026-04-30 08:42 625K
20260430T06Z_MSC_RDPS_WindDir_AGL-40m_RLatLon0.09_PT008H.grib2 2026-04-30 08:42 652K
20260430T06Z_MSC_RDPS_WindDir_AGL-80m_RLatLon0.09_PT008H.grib2 2026-04-30 08:42 635K
20260430T06Z_MSC_RDPS_WindDir_IsbL-0001_RLatLon0.09_PT008H.grib2 2026-04-30 08:42 304K
20260430T06Z_MSC_RDPS_WindDir_IsbL-0005_RLatLon0.09_PT008H.grib2 2026-04-30 08:42 359K
20260430T06Z_MSC_RDPS_WindDir_IsbL-0010_RLatLon0.09_PT008H.grib2 2026-04-30 08:42 372K
20260430T06Z_MSC_RDPS_WindDir_IsbL-0020_RLatLon0.09_PT008H.grib2 2026-04-30 08:42 394K
20260430T06Z_MSC_RDPS_WindDir_IsbL-0030_RLatLon0.09_PT008H.grib2 2026-04-30 08:42 408K
20260430T06Z_MSC_RDPS_WindDir_IsbL-0050_RLatLon0.09_PT008H.grib2 2026-04-30 08:42 424K
20260430T06Z_MSC_RDPS_WindDir_IsbL-0100_RLatLon0.09_PT008H.grib2 2026-04-30 08:42 431K
20260430T06Z_MSC_RDPS_WindDir_IsbL-0150_RLatLon0.09_PT008H.grib2 2026-04-30 08:42 428K
20260430T06Z_MSC_RDPS_WindDir_IsbL-0175_RLatLon0.09_PT008H.grib2 2026-04-30 08:42 445K
20260430T06Z_MSC_RDPS_WindDir_IsbL-0200_RLatLon0.09_PT008H.grib2 2026-04-30 08:42 458K
20260430T06Z_MSC_RDPS_WindDir_IsbL-0225_RLatLon0.09_PT008H.grib2 2026-04-30 08:42 463K
20260430T06Z_MSC_RDPS_WindDir_IsbL-0250_RLatLon0.09_PT008H.grib2 2026-04-30 08:42 464K
20260430T06Z_MSC_RDPS_WindDir_IsbL-0275_RLatLon0.09_PT008H.grib2 2026-04-30 08:42 491K
20260430T06Z_MSC_RDPS_WindDir_IsbL-0300_RLatLon0.09_PT008H.grib2 2026-04-30 08:42 486K
20260430T06Z_MSC_RDPS_WindDir_IsbL-0350_RLatLon0.09_PT008H.grib2 2026-04-30 08:42 501K
20260430T06Z_MSC_RDPS_WindDir_IsbL-0400_RLatLon0.09_PT008H.grib2 2026-04-30 08:42 515K
20260430T06Z_MSC_RDPS_WindDir_IsbL-0450_RLatLon0.09_PT008H.grib2 2026-04-30 08:42 525K
20260430T06Z_MSC_RDPS_WindDir_IsbL-0500_RLatLon0.09_PT008H.grib2 2026-04-30 08:42 539K
20260430T06Z_MSC_RDPS_WindDir_IsbL-0550_RLatLon0.09_PT008H.grib2 2026-04-30 08:42 558K
20260430T06Z_MSC_RDPS_WindDir_IsbL-0600_RLatLon0.09_PT008H.grib2 2026-04-30 08:42 593K
20260430T06Z_MSC_RDPS_WindDir_IsbL-0650_RLatLon0.09_PT008H.grib2 2026-04-30 08:42 643K
20260430T06Z_MSC_RDPS_WindDir_IsbL-0700_RLatLon0.09_PT008H.grib2 2026-04-30 08:42 693K
20260430T06Z_MSC_RDPS_WindDir_IsbL-0750_RLatLon0.09_PT008H.grib2 2026-04-30 08:42 740K
20260430T06Z_MSC_RDPS_WindDir_IsbL-0800_RLatLon0.09_PT008H.grib2 2026-04-30 08:42 798K
20260430T06Z_MSC_RDPS_WindDir_IsbL-0850_RLatLon0.09_PT008H.grib2 2026-04-30 08:42 872K
20260430T06Z_MSC_RDPS_WindDir_IsbL-0875_RLatLon0.09_PT008H.grib2 2026-04-30 08:42 901K
20260430T06Z_MSC_RDPS_WindDir_IsbL-0900_RLatLon0.09_PT008H.grib2 2026-04-30 08:42 914K
20260430T06Z_MSC_RDPS_WindDir_IsbL-0925_RLatLon0.09_PT008H.grib2 2026-04-30 08:42 923K
20260430T06Z_MSC_RDPS_WindDir_IsbL-0950_RLatLon0.09_PT008H.grib2 2026-04-30 08:42 925K
20260430T06Z_MSC_RDPS_WindDir_IsbL-0970_RLatLon0.09_PT008H.grib2 2026-04-30 08:42 937K
20260430T06Z_MSC_RDPS_WindDir_IsbL-0985_RLatLon0.09_PT008H.grib2 2026-04-30 08:42 947K
20260430T06Z_MSC_RDPS_WindDir_IsbL-1000_RLatLon0.09_PT008H.grib2 2026-04-30 08:42 961K
20260430T06Z_MSC_RDPS_WindDir_IsbL-1015_RLatLon0.09_PT008H.grib2 2026-04-30 08:42 1.0M
20260430T06Z_MSC_RDPS_WindGust-Max_AGL-10m_RLatLon0.09_PT008H.grib2 2026-04-30 08:42 1.0M
20260430T06Z_MSC_RDPS_WindGust-Min_AGL-10m_RLatLon0.09_PT008H.grib2 2026-04-30 08:42 971K
20260430T06Z_MSC_RDPS_WindGust_AGL-10m_RLatLon0.09_PT008H.grib2 2026-04-30 08:42 1.0M
20260430T06Z_MSC_RDPS_WindSpeed_AGL-10m_RLatLon0.09_PT008H.grib2 2026-04-30 08:42 839K
20260430T06Z_MSC_RDPS_WindSpeed_AGL-120m_RLatLon0.09_PT008H.grib2 2026-04-30 08:42 540K
20260430T06Z_MSC_RDPS_WindSpeed_AGL-40m_RLatLon0.09_PT008H.grib2 2026-04-30 08:42 539K
20260430T06Z_MSC_RDPS_WindSpeed_AGL-80m_RLatLon0.09_PT008H.grib2 2026-04-30 08:42 539K
20260430T06Z_MSC_RDPS_WindSpeed_IsbL-0001_RLatLon0.09_PT008H.grib2 2026-04-30 08:42 329K
20260430T06Z_MSC_RDPS_WindSpeed_IsbL-0005_RLatLon0.09_PT008H.grib2 2026-04-30 08:42 288K
20260430T06Z_MSC_RDPS_WindSpeed_IsbL-0010_RLatLon0.09_PT008H.grib2 2026-04-30 08:42 389K
20260430T06Z_MSC_RDPS_WindSpeed_IsbL-0020_RLatLon0.09_PT008H.grib2 2026-04-30 08:42 312K
20260430T06Z_MSC_RDPS_WindSpeed_IsbL-0030_RLatLon0.09_PT008H.grib2 2026-04-30 08:42 316K
20260430T06Z_MSC_RDPS_WindSpeed_IsbL-0050_RLatLon0.09_PT008H.grib2 2026-04-30 08:42 343K
20260430T06Z_MSC_RDPS_WindSpeed_IsbL-0100_RLatLon0.09_PT008H.grib2 2026-04-30 08:42 473K
20260430T06Z_MSC_RDPS_WindSpeed_IsbL-0150_RLatLon0.09_PT008H.grib2 2026-04-30 08:42 383K
20260430T06Z_MSC_RDPS_WindSpeed_IsbL-0175_RLatLon0.09_PT008H.grib2 2026-04-30 08:42 431K
20260430T06Z_MSC_RDPS_WindSpeed_IsbL-0200_RLatLon0.09_PT008H.grib2 2026-04-30 08:42 446K
20260430T06Z_MSC_RDPS_WindSpeed_IsbL-0225_RLatLon0.09_PT008H.grib2 2026-04-30 08:42 453K
20260430T06Z_MSC_RDPS_WindSpeed_IsbL-0250_RLatLon0.09_PT008H.grib2 2026-04-30 08:42 458K
20260430T06Z_MSC_RDPS_WindSpeed_IsbL-0275_RLatLon0.09_PT008H.grib2 2026-04-30 08:42 475K
20260430T06Z_MSC_RDPS_WindSpeed_IsbL-0300_RLatLon0.09_PT008H.grib2 2026-04-30 08:42 472K
20260430T06Z_MSC_RDPS_WindSpeed_IsbL-0350_RLatLon0.09_PT008H.grib2 2026-04-30 08:42 484K
20260430T06Z_MSC_RDPS_WindSpeed_IsbL-0400_RLatLon0.09_PT008H.grib2 2026-04-30 08:42 486K
20260430T06Z_MSC_RDPS_WindSpeed_IsbL-0450_RLatLon0.09_PT008H.grib2 2026-04-30 08:42 468K
20260430T06Z_MSC_RDPS_WindSpeed_IsbL-0500_RLatLon0.09_PT008H.grib2 2026-04-30 08:42 468K
20260430T06Z_MSC_RDPS_WindSpeed_IsbL-0550_RLatLon0.09_PT008H.grib2 2026-04-30 08:42 467K
20260430T06Z_MSC_RDPS_WindSpeed_IsbL-0600_RLatLon0.09_PT008H.grib2 2026-04-30 08:42 593K
20260430T06Z_MSC_RDPS_WindSpeed_IsbL-0650_RLatLon0.09_PT008H.grib2 2026-04-30 08:42 615K
20260430T06Z_MSC_RDPS_WindSpeed_IsbL-0700_RLatLon0.09_PT008H.grib2 2026-04-30 08:42 640K
20260430T06Z_MSC_RDPS_WindSpeed_IsbL-0750_RLatLon0.09_PT008H.grib2 2026-04-30 08:42 712K
20260430T06Z_MSC_RDPS_WindSpeed_IsbL-0800_RLatLon0.09_PT008H.grib2 2026-04-30 08:42 755K
20260430T06Z_MSC_RDPS_WindSpeed_IsbL-0850_RLatLon0.09_PT008H.grib2 2026-04-30 08:42 812K
20260430T06Z_MSC_RDPS_WindSpeed_IsbL-0875_RLatLon0.09_PT008H.grib2 2026-04-30 08:42 831K
20260430T06Z_MSC_RDPS_WindSpeed_IsbL-0900_RLatLon0.09_PT008H.grib2 2026-04-30 08:42 846K
20260430T06Z_MSC_RDPS_WindSpeed_IsbL-0925_RLatLon0.09_PT008H.grib2 2026-04-30 08:42 859K
20260430T06Z_MSC_RDPS_WindSpeed_IsbL-0950_RLatLon0.09_PT008H.grib2 2026-04-30 08:42 860K
20260430T06Z_MSC_RDPS_WindSpeed_IsbL-0970_RLatLon0.09_PT008H.grib2 2026-04-30 08:42 857K
20260430T06Z_MSC_RDPS_WindSpeed_IsbL-0985_RLatLon0.09_PT008H.grib2 2026-04-30 08:42 850K
20260430T06Z_MSC_RDPS_WindSpeed_IsbL-1000_RLatLon0.09_PT008H.grib2 2026-04-30 08:42 847K
20260430T06Z_MSC_RDPS_WindSpeed_IsbL-1015_RLatLon0.09_PT008H.grib2 2026-04-30 08:42 838K
20260430T06Z_MSC_RDPS_WindU_AGL-10m_RLatLon0.09_PT008H.grib2 2026-04-30 08:42 430K
20260430T06Z_MSC_RDPS_WindU_AGL-120m_RLatLon0.09_PT008H.grib2 2026-04-30 08:42 536K
20260430T06Z_MSC_RDPS_WindU_AGL-40m_RLatLon0.09_PT008H.grib2 2026-04-30 08:42 537K
20260430T06Z_MSC_RDPS_WindU_AGL-80m_RLatLon0.09_PT008H.grib2 2026-04-30 08:42 537K
20260430T06Z_MSC_RDPS_WindU_IsbL-0001_RLatLon0.09_PT008H.grib2 2026-04-30 08:42 289K
20260430T06Z_MSC_RDPS_WindU_IsbL-0005_RLatLon0.09_PT008H.grib2 2026-04-30 08:42 324K
20260430T06Z_MSC_RDPS_WindU_IsbL-0010_RLatLon0.09_PT008H.grib2 2026-04-30 08:42 289K
20260430T06Z_MSC_RDPS_WindU_IsbL-0020_RLatLon0.09_PT008H.grib2 2026-04-30 08:42 343K
20260430T06Z_MSC_RDPS_WindU_IsbL-0030_RLatLon0.09_PT008H.grib2 2026-04-30 08:42 346K
20260430T06Z_MSC_RDPS_WindU_IsbL-0050_RLatLon0.09_PT008H.grib2 2026-04-30 08:42 334K
20260430T06Z_MSC_RDPS_WindU_IsbL-0100_RLatLon0.09_PT008H.grib2 2026-04-30 08:42 429K
20260430T06Z_MSC_RDPS_WindU_IsbL-0150_RLatLon0.09_PT008H.grib2 2026-04-30 08:42 399K
20260430T06Z_MSC_RDPS_WindU_IsbL-0175_RLatLon0.09_PT008H.grib2 2026-04-30 08:42 424K
20260430T06Z_MSC_RDPS_WindU_IsbL-0200_RLatLon0.09_PT008H.grib2 2026-04-30 08:42 340K
20260430T06Z_MSC_RDPS_WindU_IsbL-0225_RLatLon0.09_PT008H.grib2 2026-04-30 08:42 345K
20260430T06Z_MSC_RDPS_WindU_IsbL-0250_RLatLon0.09_PT008H.grib2 2026-04-30 08:42 347K
20260430T06Z_MSC_RDPS_WindU_IsbL-0275_RLatLon0.09_PT008H.grib2 2026-04-30 08:42 362K
20260430T06Z_MSC_RDPS_WindU_IsbL-0300_RLatLon0.09_PT008H.grib2 2026-04-30 08:42 358K
20260430T06Z_MSC_RDPS_WindU_IsbL-0350_RLatLon0.09_PT008H.grib2 2026-04-30 08:42 472K
20260430T06Z_MSC_RDPS_WindU_IsbL-0400_RLatLon0.09_PT008H.grib2 2026-04-30 08:42 474K
20260430T06Z_MSC_RDPS_WindU_IsbL-0450_RLatLon0.09_PT008H.grib2 2026-04-30 08:42 472K
20260430T06Z_MSC_RDPS_WindU_IsbL-0500_RLatLon0.09_PT008H.grib2 2026-04-30 08:42 472K
20260430T06Z_MSC_RDPS_WindU_IsbL-0550_RLatLon0.09_PT008H.grib2 2026-04-30 08:42 472K
20260430T06Z_MSC_RDPS_WindU_IsbL-0600_RLatLon0.09_PT008H.grib2 2026-04-30 08:42 463K
20260430T06Z_MSC_RDPS_WindU_IsbL-0650_RLatLon0.09_PT008H.grib2 2026-04-30 08:42 483K
20260430T06Z_MSC_RDPS_WindU_IsbL-0700_RLatLon0.09_PT008H.grib2 2026-04-30 08:42 507K
20260430T06Z_MSC_RDPS_WindU_IsbL-0750_RLatLon0.09_PT008H.grib2 2026-04-30 08:42 532K
20260430T06Z_MSC_RDPS_WindU_IsbL-0800_RLatLon0.09_PT008H.grib2 2026-04-30 08:42 571K
20260430T06Z_MSC_RDPS_WindU_IsbL-0850_RLatLon0.09_PT008H.grib2 2026-04-30 08:42 755K
20260430T06Z_MSC_RDPS_WindU_IsbL-0875_RLatLon0.09_PT008H.grib2 2026-04-30 08:42 774K
20260430T06Z_MSC_RDPS_WindU_IsbL-0900_RLatLon0.09_PT008H.grib2 2026-04-30 08:42 786K
20260430T06Z_MSC_RDPS_WindU_IsbL-0925_RLatLon0.09_PT008H.grib2 2026-04-30 08:42 655K
20260430T06Z_MSC_RDPS_WindU_IsbL-0950_RLatLon0.09_PT008H.grib2 2026-04-30 08:42 652K
20260430T06Z_MSC_RDPS_WindU_IsbL-0970_RLatLon0.09_PT008H.grib2 2026-04-30 08:42 793K
20260430T06Z_MSC_RDPS_WindU_IsbL-0985_RLatLon0.09_PT008H.grib2 2026-04-30 08:42 788K
20260430T06Z_MSC_RDPS_WindU_IsbL-1000_RLatLon0.09_PT008H.grib2 2026-04-30 08:42 785K
20260430T06Z_MSC_RDPS_WindU_IsbL-1015_RLatLon0.09_PT008H.grib2 2026-04-30 08:42 826K
20260430T06Z_MSC_RDPS_WindV_AGL-10m_RLatLon0.09_PT008H.grib2 2026-04-30 08:42 431K
20260430T06Z_MSC_RDPS_WindV_AGL-120m_RLatLon0.09_PT008H.grib2 2026-04-30 08:42 535K
20260430T06Z_MSC_RDPS_WindV_AGL-40m_RLatLon0.09_PT008H.grib2 2026-04-30 08:42 535K
20260430T06Z_MSC_RDPS_WindV_AGL-80m_RLatLon0.09_PT008H.grib2 2026-04-30 08:42 535K
20260430T06Z_MSC_RDPS_WindV_IsbL-0001_RLatLon0.09_PT008H.grib2 2026-04-30 08:42 242K
20260430T06Z_MSC_RDPS_WindV_IsbL-0005_RLatLon0.09_PT008H.grib2 2026-04-30 08:42 280K
20260430T06Z_MSC_RDPS_WindV_IsbL-0010_RLatLon0.09_PT008H.grib2 2026-04-30 08:42 292K
20260430T06Z_MSC_RDPS_WindV_IsbL-0020_RLatLon0.09_PT008H.grib2 2026-04-30 08:42 305K
20260430T06Z_MSC_RDPS_WindV_IsbL-0030_RLatLon0.09_PT008H.grib2 2026-04-30 08:42 309K
20260430T06Z_MSC_RDPS_WindV_IsbL-0050_RLatLon0.09_PT008H.grib2 2026-04-30 08:42 336K
20260430T06Z_MSC_RDPS_WindV_IsbL-0100_RLatLon0.09_PT008H.grib2 2026-04-30 08:42 424K
20260430T06Z_MSC_RDPS_WindV_IsbL-0150_RLatLon0.09_PT008H.grib2 2026-04-30 08:42 398K
20260430T06Z_MSC_RDPS_WindV_IsbL-0175_RLatLon0.09_PT008H.grib2 2026-04-30 08:42 421K
20260430T06Z_MSC_RDPS_WindV_IsbL-0200_RLatLon0.09_PT008H.grib2 2026-04-30 08:42 337K
20260430T06Z_MSC_RDPS_WindV_IsbL-0225_RLatLon0.09_PT008H.grib2 2026-04-30 08:42 343K
20260430T06Z_MSC_RDPS_WindV_IsbL-0250_RLatLon0.09_PT008H.grib2 2026-04-30 08:42 345K
20260430T06Z_MSC_RDPS_WindV_IsbL-0275_RLatLon0.09_PT008H.grib2 2026-04-30 08:42 360K
20260430T06Z_MSC_RDPS_WindV_IsbL-0300_RLatLon0.09_PT008H.grib2 2026-04-30 08:42 356K
20260430T06Z_MSC_RDPS_WindV_IsbL-0350_RLatLon0.09_PT008H.grib2 2026-04-30 08:42 365K
20260430T06Z_MSC_RDPS_WindV_IsbL-0400_RLatLon0.09_PT008H.grib2 2026-04-30 08:42 471K
20260430T06Z_MSC_RDPS_WindV_IsbL-0450_RLatLon0.09_PT008H.grib2 2026-04-30 08:42 470K
20260430T06Z_MSC_RDPS_WindV_IsbL-0500_RLatLon0.09_PT008H.grib2 2026-04-30 08:42 471K
20260430T06Z_MSC_RDPS_WindV_IsbL-0550_RLatLon0.09_PT008H.grib2 2026-04-30 08:42 470K
20260430T06Z_MSC_RDPS_WindV_IsbL-0600_RLatLon0.09_PT008H.grib2 2026-04-30 08:42 461K
20260430T06Z_MSC_RDPS_WindV_IsbL-0650_RLatLon0.09_PT008H.grib2 2026-04-30 08:42 481K
20260430T06Z_MSC_RDPS_WindV_IsbL-0700_RLatLon0.09_PT008H.grib2 2026-04-30 08:42 503K
20260430T06Z_MSC_RDPS_WindV_IsbL-0750_RLatLon0.09_PT008H.grib2 2026-04-30 08:42 652K
20260430T06Z_MSC_RDPS_WindV_IsbL-0800_RLatLon0.09_PT008H.grib2 2026-04-30 08:42 694K
20260430T06Z_MSC_RDPS_WindV_IsbL-0850_RLatLon0.09_PT008H.grib2 2026-04-30 08:42 751K
20260430T06Z_MSC_RDPS_WindV_IsbL-0875_RLatLon0.09_PT008H.grib2 2026-04-30 08:42 771K
20260430T06Z_MSC_RDPS_WindV_IsbL-0900_RLatLon0.09_PT008H.grib2 2026-04-30 08:42 785K
20260430T06Z_MSC_RDPS_WindV_IsbL-0925_RLatLon0.09_PT008H.grib2 2026-04-30 08:42 795K
20260430T06Z_MSC_RDPS_WindV_IsbL-0950_RLatLon0.09_PT008H.grib2 2026-04-30 08:42 793K
20260430T06Z_MSC_RDPS_WindV_IsbL-0970_RLatLon0.09_PT008H.grib2 2026-04-30 08:42 793K
20260430T06Z_MSC_RDPS_WindV_IsbL-0985_RLatLon0.09_PT008H.grib2 2026-04-30 08:42 835K
20260430T06Z_MSC_RDPS_WindV_IsbL-1000_RLatLon0.09_PT008H.grib2 2026-04-30 08:42 831K
20260430T06Z_MSC_RDPS_WindV_IsbL-1015_RLatLon0.09_PT008H.grib2 2026-04-30 08:42 824K